Home > Weather > Malmö > Past weeks

Flag for Sweden Past Weather in Malmö, Sweden — Yesterday and Last 2 Weeks

Now
52 °F

Clear.


Feels Like: 52 °F
Forecast: 62 / 71 °F
Wind: No wind

Location: Malmo / Sturup

Current Time: Jul 27, 2016 at 3:53:05 AM

Latest Report: Jul 27, 2016 at 3:20 AM


Visibility: 10 mi

Pressure: 30.09 "Hg

Humidity: 100%

Dew Point: 52 °F

Location of MalmöLocation

Past Weather in Malmö — Graph

°F

Malmö Temperature Yesterday

Maximum temperature yesterday: 72 °F (at 12:50 PM)
Minimum temperature yesterday: 59 °F (at 11:50 PM)
Average temperature yesterday: 66 °F

High & Low Weather Summary for the Past Weeks

 TemperatureHumidityPressure
High81 °F (Jul 22, 2:20 PM)100% (Jul 14, 12:50 AM)30.15 "Hg (Jul 14, 12:50 AM)
Low50 °F (Jul 14, 4:20 AM)42% (Jul 22, 2:50 PM)29.68 "Hg (Jul 12, 3:50 AM)
Average64 °F78%30.02 "Hg
* Reported Jul 12 2:20 AM — Jul 27 2:20 AM, Malmö, Weather by CustomWeather, © 2016

Note: Actual official high and low records may vary slightly from our data, if they occured in-between our weather recording intervals... More about our weather records

Advertising

Malmö Weather History for the Previous 24 Hours

Scroll right to see more
 ConditionsComfort  
Time TempWeatherWind HumidityBarometerVisibility
2:20 AM
Wed, Jul 27
54 °FClear.2 mph94%30.09 "Hg10 mi
1:50 AM54 °FClear.No wind94%30.09 "Hg10 mi
1:20 AM55 °FClear.1 mph94%30.09 "Hg10 mi
12:50 AM55 °FClear.3 mph94%30.09 "Hg10 mi
12:20 AM57 °FClear.1 mph88%30.09 "Hg10 mi
11:50 PM
Tue, Jul 26
59 °FClear.No wind82%30.09 "Hg10 mi
11:20 PM63 °FPassing clouds.5 mph77%30.09 "HgN/A
10:50 PM66 °FPartly cloudy.6 mph68%30.09 "HgN/A
10:20 PM66 °FPassing clouds.3 mph68%30.09 "HgN/A
9:50 PM63 °FSunny.3 mph77%30.09 "Hg10 mi
9:20 PM64 °FSunny.5 mph73%30.09 "Hg10 mi
8:50 PM66 °FSunny.3 mph64%30.09 "Hg10 mi
8:20 PM68 °FSunny.6 mph64%30.09 "Hg10 mi
7:50 PM66 °FSunny.6 mph64%30.09 "Hg10 mi
7:20 PM68 °FSunny.10 mph60%30.07 "Hg10 mi
6:50 PM68 °FSunny.10 mph60%30.07 "Hg10 mi
6:20 PM70 °FSunny.12 mph57%30.07 "Hg10 mi
5:50 PM72 °FSunny.14 mph50%30.07 "Hg10 mi
5:20 PM72 °FSunny.14 mph53%30.07 "Hg10 mi
4:50 PM72 °FSunny.14 mph53%30.07 "Hg10 mi
4:20 PM72 °FSunny.15 mph57%30.07 "Hg10 mi
3:50 PM70 °FSunny.13 mph60%30.07 "Hg10 mi
3:20 PM72 °FSunny.13 mph57%30.07 "Hg10 mi
2:50 PM70 °FScattered clouds.13 mph64%30.07 "HgN/A
2:20 PM72 °FScattered clouds.13 mph53%30.07 "HgN/A
1:50 PM72 °FScattered clouds.14 mph57%30.07 "HgN/A
1:20 PM70 °FScattered clouds.14 mph60%30.07 "HgN/A
12:50 PM72 °FScattered clouds.14 mph57%30.07 "HgN/A
12:20 PM70 °FScattered clouds.10 mph60%30.07 "HgN/A
11:50 AM70 °FPartly sunny.12 mph69%30.07 "HgN/A
11:20 AM68 °FPartly sunny.13 mph73%30.07 "HgN/A
10:50 AM70 °FPartly sunny.10 mph73%30.07 "HgN/A
10:20 AM68 °FPartly sunny.8 mph83%30.07 "HgN/A
9:50 AM66 °FMostly cloudy.8 mph88%30.07 "HgN/A
9:20 AM66 °FBroken clouds.6 mph88%30.07 "HgN/A
8:50 AM66 °FLight rain. Broken clouds.6 mph94%30.04 "HgN/A
8:20 AM66 °FBroken clouds.7 mph88%30.04 "HgN/A
7:50 AM66 °FPartly sunny.7 mph94%30.04 "HgN/A
7:20 AM66 °FScattered clouds.5 mph100%30.04 "HgN/A
6:50 AM64 °FFog.2 mph100%30.04 "Hg4 mi
6:20 AM63 °FFog.2 mph100%30.04 "Hg2 mi
5:50 AM63 °FFog.2 mph100%30.04 "Hg3 mi
5:20 AM63 °FLight fog.2 mph100%30.04 "Hg0 mi
4:50 AM63 °FMostly cloudy.3 mph100%30.04 "Hg1 mi
4:20 AM61 °FFog.2 mph100%30.01 "Hg0 mi
3:50 AM61 °FFog.3 mph100%30.01 "Hg0 mi
3:20 AM61 °FFog.3 mph100%30.04 "Hg0 mi
Weather by CustomWeather, © 2016

See weather overviewHow to use our weather pages